Location: Unspecified
(0.0000°N, 0.0000°E)
Time: 12:39:23
(UTC+00:00)

COSMOS 2508 - Visible Passes

Search period start: 13 December 2025 00:00
Search period end: 23 December 2025 00:00
Orbit: 1483 x 1506 km, 82.5° (Epoch: 13 December)

Date Brightness Start Highest point End Pass type
(mag) Time Alt. Az. Time Alt. Az. Time Alt. Az.
13 Dec ? 18:14:59 10° NNE 18:22:21 30° E 18:29:43 10° SE visible
13 Dec ? 20:11:07 10° NNW 20:18:45 34° W 20:26:28 10° SSW visible
14 Dec ? 19:20:49 10° N 19:29:32 74° W 19:38:20 10° S visible
15 Dec ? 18:31:51 10° NNE 18:40:19 54° E 18:48:50 10° SSE visible
15 Dec ? 20:31:15 10° NW 20:36:44 18° W 20:42:19 10° SW visible
16 Dec ? 19:39:25 10° NNW 19:47:31 43° W 19:55:43 10° SSW visible
17 Dec ? 18:49:31 10° N 18:58:18 90° WSW 19:07:09 10° S visible
18 Dec ? 05:29:29 10° SE 05:35:38 21° E 05:41:42 10° NE visible
18 Dec ? 19:58:57 10° NW 20:05:30 24° W 20:12:08 10° SW visible
19 Dec ? 19:07:50 10° NNW 19:16:17 53° W 19:24:48 10° SSW visible
20 Dec ? 18:18:19 10° N 18:27:04 75° E 18:35:52 10° S visible
20 Dec ? 20:21:01 10° WNW 20:23:31 11° W 20:26:01 10° WSW visible
21 Dec ? 04:59:30 10° SE 05:04:23 16° E 05:09:13 10° ENE visible
21 Dec ? 19:26:57 10° NW 19:34:16 30° W 19:41:40 10° SSW visible
22 Dec ? 18:36:23 10° NNW 18:45:03 66° W 18:53:47 10° S visible
